Date String (YYYY-MM-DD hh:mm:ss) UTC,Instrument flags,Ambient pressure (hPa),Sample flow (lpm),Bypass flow (lpm),Sample temperature (°C),Ambient temperature (°C),ASC tube jacket temperature (°C),LED temperature (°C),Box temperature (°C),Sample RH (%),Span deviation,Mass concentration (μg/m³),Mass concentration (μg/m³),Mass concentration (μg/m³)
DateTimeUTC,F1_M11,P_M11,Q1_M11,Q2_M11,T1_M11,T2_M11,T3_M11,T4_M11,T5_M11,U1_M11,ZSPAN_M11,X0_M11,X2_M11,X1_M11
2023-02-02 20:00:00,,0831.5,5.00,0.00,26.3,25.3,00.0,35.0,28.2,08.9,0000.0,0024.21,0011.23,0009.44
2023-02-02 20:01:00,,0831.5,5.01,0.00,26.4,25.3,00.0,35.1,28.2,08.9,0000.0,0025.09,0011.27,0009.39
2023-02-02 20:02:00,,0831.5,5.01,0.00,26.4,25.3,00.0,35.1,28.2,09.0,0000.0,0026.85,0011.33,0009.32
2023-02-02 20:03:00,,0831.5,4.99,0.00,26.4,25.3,00.0,35.1,28.3,08.7,0000.5,0027.67,0011.31,0009.24
2023-02-02 20:04:00,,0831.5,5.00,0.00,26.4,25.3,00.0,35.1,28.3,08.9,0002.4,0027.43,0011.30,0009.13
2023-02-02 20:05:00,,0831.5,5.00,0.00,26.4,25.4,00.0,35.1,28.3,09.1,0000.0,0027.26,0011.28,0009.03
2023-02-02 20:06:00,,0831.5,5.02,0.00,26.4,25.4,00.0,35.1,28.3,08.9,0000.0,0027.56,0011.18,0008.92
2023-02-02 20:07:00,,0831.5,5.00,0.00,26.5,25.4,00.0,35.2,28.3,08.8,0000.6,0027.90,0011.14,0008.82
2023-02-02 20:08:00,,0831.5,4.99,0.00,26.5,25.4,00.0,35.2,28.3,08.9,0001.3,0027.55,0011.06,0008.77
2023-02-02 20:09:00,,0831.4,5.01,0.00,26.5,25.4,00.0,35.2,28.3,09.1,0001.7,0026.42,0011.07,0008.76
2023-02-02 20:10:00,,0831.5,5.01,0.00,26.5,25.4,00.0,35.2,28.3,09.1,0002.2,0027.06,0011.14,0008.82
2023-02-02 20:11:00,,0831.4,5.00,0.00,26.5,25.4,00.0,35.2,28.4,09.1,0002.9,0027.58,0011.14,0008.87
2023-02-02 20:12:00,,0831.4,4.99,0.00,26.5,25.5,00.0,35.2,28.4,09.2,0002.2,0027.22,0011.21,0008.97
2023-02-02 20:13:00,,0831.4,5.00,0.00,26.6,25.5,00.0,35.2,28.4,08.9,0002.2,0027.24,0011.27,0009.06
2023-02-02 20:14:00,,0831.4,5.01,0.00,26.6,25.5,00.0,35.3,28.4,08.9,0001.4,0027.42,0011.38,0009.16
2023-02-02 20:15:00,,0831.4,5.00,0.00,26.6,25.5,00.0,35.3,28.4,09.1,0001.7,0028.00,0011.46,0009.26
2023-02-02 20:16:00,,0831.4,5.01,0.00,26.6,25.5,00.0,35.3,28.4,09.1,0001.7,0028.47,0011.52,0009.37
2023-02-02 20:17:00,,0831.4,5.00,0.00,26.6,25.5,00.0,35.3,28.4,09.0,0001.9,0028.96,0011.62,0009.48
2023-02-02 20:18:00,,0831.4,4.99,0.00,26.6,25.5,00.0,35.3,28.4,09.2,0002.3,0028.98,0011.67,0009.59
2023-02-02 20:19:00,,0831.4,5.00,0.00,26.6,25.5,00.0,35.3,28.5,09.1,0002.3,0029.03,0011.77,0009.69
2023-02-02 20:20:00,,0831.4,5.00,0.00,26.7,25.6,00.0,35.3,28.4,09.2,0002.6,0029.94,0011.89,0009.80
2023-02-02 20:21:00,,0831.3,5.00,0.00,26.7,25.6,00.0,35.4,28.5,09.0,0002.5,0029.77,0012.02,0009.91
2023-02-02 20:22:00,,0831.2,4.99,0.00,26.7,25.6,00.0,35.4,28.5,09.0,0003.0,0029.63,0012.14,0010.00
2023-02-02 20:23:00,,0831.2,4.99,0.00,26.7,25.6,00.0,35.4,28.5,08.9,0003.7,0029.96,0012.27,0010.12
2023-02-02 20:24:00,,0831.2,5.00,0.00,26.7,25.6,00.0,35.4,28.5,08.9,0004.1,0029.53,0012.45,0010.27
2023-02-02 20:25:00,,0831.2,5.00,0.00,26.7,25.6,00.0,35.4,28.5,09.0,0004.1,0030.13,0012.60,0010.42
2023-02-02 20:26:00,,0831.2,5.01,0.00,26.7,25.6,00.0,35.4,28.6,08.8,0004.0,0030.56,0012.77,0010.57
2023-02-02 20:27:00,,0831.2,5.00,0.00,26.7,25.6,00.0,35.4,28.6,08.8,0004.2,0031.41,0012.84,0010.65
2023-02-02 20:28:00,,0831.2,5.00,0.00,26.7,25.6,00.0,35.5,28.6,08.7,0004.3,0031.69,0012.91,0010.70
2023-02-02 20:29:00,,0831.2,5.00,0.00,26.8,25.6,00.0,35.5,28.6,08.6,0004.5,0030.57,0012.94,0010.72
2023-02-02 20:30:00,,0831.2,5.00,0.00,26.8,25.6,00.0,35.5,28.6,08.6,0004.4,0030.63,0012.96,0010.76
2023-02-02 20:31:00,,0831.2,5.00,0.00,26.8,25.6,00.0,35.5,28.5,08.7,0004.2,0030.59,0013.05,0010.80
2023-02-02 20:32:00,,0831.2,5.01,0.00,26.8,25.6,00.0,35.5,28.5,08.8,0004.2,0030.63,0013.06,0010.84
2023-02-02 20:33:00,,0831.2,5.00,0.00,26.8,25.6,00.0,35.5,28.6,08.9,0003.7,0031.65,0013.25,0010.95
2023-02-02 20:34:00,,0831.2,4.98,0.00,26.8,25.6,00.0,35.5,28.6,08.8,0003.1,0032.46,0013.27,0010.97
2023-02-02 20:35:00,,0831.2,4.98,0.00,26.8,25.6,00.0,35.5,28.6,08.7,0002.3,0032.86,0013.25,0010.96
2023-02-02 20:36:00,,0831.2,5.00,0.00,26.8,25.6,00.0,35.5,28.6,08.8,0002.1,0032.23,0013.29,0010.96
2023-02-02 20:37:00,,0831.2,5.01,0.00,26.8,25.6,00.0,35.6,28.7,08.7,0002.4,0031.77,0013.37,0010.98
2023-02-02 20:38:00,,0831.2,5.01,0.00,26.8,25.6,00.0,35.6,28.6,08.8,0002.2,0030.74,0013.43,0011.00
2023-02-02 20:39:00,,0831.2,5.00,0.00,26.8,25.7,00.0,35.6,28.6,09.2,0002.0,0030.33,0013.43,0011.05
2023-02-02 20:40:00,,0831.2,5.00,0.00,26.9,25.7,00.0,35.6,28.6,09.1,0001.8,0031.52,0013.56,0011.19
2023-02-02 20:41:00,,0831.2,5.00,0.00,26.9,25.7,00.0,35.6,28.6,09.2,0001.6,0031.37,0013.75,0011.34
2023-02-02 20:42:00,,0831.2,5.00,0.00,26.9,25.7,00.0,35.6,28.7,09.0,0002.0,0031.18,0013.81,0011.46
2023-02-02 20:43:00,,0831.2,4.99,0.00,26.9,25.7,00.0,35.6,28.7,08.8,0002.3,0031.41,0013.86,0011.50
2023-02-02 20:44:00,,0831.2,4.99,0.00,26.9,25.7,00.0,35.6,28.7,08.9,0002.1,0030.10,0013.79,0011.46
2023-02-02 20:45:00,,0831.2,4.99,0.00,26.9,25.7,00.0,35.6,28.7,08.8,0002.3,0029.23,0013.71,0011.41
2023-02-02 20:46:00,,0831.2,5.00,0.00,26.9,25.7,00.0,35.7,28.7,08.7,0002.7,0028.62,0013.69,0011.38
2023-02-02 20:47:00,,0831.2,4.99,0.00,26.9,25.7,00.0,35.7,28.7,08.8,0003.1,0028.18,0013.75,0011.42
2023-02-02 20:48:00,,0831.2,5.00,0.00,26.9,25.8,00.0,35.7,28.7,08.8,0003.0,0029.27,0013.75,0011.45
2023-02-02 20:49:00,,0831.2,4.99,0.00,27.0,25.8,00.0,35.7,28.7,08.8,0003.2,0030.50,0013.85,0011.53
2023-02-02 20:50:00,,0831.2,5.00,0.00,27.0,25.8,00.0,35.7,28.8,08.8,0002.4,0029.68,0013.90,0011.59
2023-02-02 20:51:00,,0831.2,5.00,0.00,27.0,25.8,00.0,35.7,28.8,08.7,0002.4,0028.68,0013.82,0011.57
2023-02-02 20:52:00,,0831.2,4.99,0.00,27.0,25.9,00.0,35.7,28.8,08.6,0002.9,0028.61,0013.69,0011.46
2023-02-02 20:53:00,,0831.2,4.99,0.00,27.0,25.9,00.0,35.7,28.8,08.7,0002.3,0028.75,0013.60,0011.36
2023-02-02 20:54:00,,0831.2,5.02,0.00,27.0,25.9,00.0,35.7,28.9,08.8,0002.1,0028.67,0013.54,0011.31
2023-02-02 20:55:00,,0831.2,5.00,0.00,27.1,26.0,00.0,35.8,28.9,08.9,0002.4,0028.41,0013.49,0011.30
2023-02-02 20:56:00,,0831.2,4.99,0.00,27.1,26.0,00.0,35.8,28.9,09.1,0002.5,0028.64,0013.57,0011.39
2023-02-02 20:57:00,,0831.2,5.01,0.00,27.1,26.0,00.0,35.8,28.9,09.1,0002.2,0028.08,0013.63,0011.49
2023-02-02 20:58:00,,0831.2,5.00,0.00,27.1,26.0,00.0,35.8,28.9,08.9,0002.3,0028.74,0013.56,0011.50
2023-02-02 20:59:00,,0831.1,5.00,0.00,27.1,26.0,00.0,35.8,29.0,09.0,0002.3,0028.39,0013.55,0011.50
